www.pogodaiklimat.ru

Погода и климат >> Архив погоды >> Россия >> Приморский край >> Рудная Пристань


ПОГОДА в Рудной Пристани

  • Прогноз погоды в Рудной Пристани
  • Монитор погоды в Рудной Пристани
  • Климат города

АРХИВ ПОГОДЫ в Рудной Пристани

Время (UTC), дата Ветер
(напр.,м/с)
 
Видим.   Явления Облачность Т
(С)
Тd
(С)
f
(%)
Тe
(С)
Тes
(С)
Комфортность P
(гПа)
Po
(гПа)
Тmin
(С)
Tmax
(С)
R
(мм)
S
(см)
00 19.03 З 4 20 км 4/0
[Ac lent Ci fib]
+6.2 -10.3 30 +3 +6 1019.9 1015.7
03 19.03 В 3 20 км 6/4 600 м
[Cb cap Ci fib]
+8.1 -6.8 34 +6 +12 1018.5 1014.4
06 19.03 В 4 20 км 3/1 600 м
[Sc diur, vesp Ci fib]
+4.8 -8.1 39 +1 +5 1019.4 1015.2
09 19.03 С 2 20 км 8/0
[Ac lent Ci sp]
+2.2 -8.5 45 -0 -0 1020.6 1016.3 +10.0
12 19.03 З 2 20 км 3/0
[Ac lent]
-2.7 -8.5 64 -6 -6 1021.3 1017.0
15 19.03 З 1 20 км ясно -3.2 -9.1 64 -5 -5 1021.2 1016.8
18 19.03 З 2 20 км ясно -3.1 -9.7 60 -7 -7 1021.2 1016.8
21 19.03 СЗ 2 20 км 3/0
[Ac lent]
-0.6 -10.4 47 -4 -4 1021.1 1016.8 -4.6
00 20.03 З 3 20 км 8/0
[Ac lent Ci fib]
+2.3 -7.5 48 -1 +2 1020.5 1016.2
03 20.03 В 2 20 км 9/4 600 м
[Cb cap Ci sp]
+5.5 -10.0 32 +4 +10 1018.6 1014.4
06 20.03 ЮВ 1 20 км 9/4 600 м
[Cb cap Ci sp]
+6.4 -6.5 39 +6 +10 1016.4 1012.2
09 20.03 СВ 1 20 км 9/6 600 м
[Cb cap Ci sp]
+1.3 -4.1 67 -0 -0 1015.5 1011.2 +7.4
12 20.03 штиль 0 20 км 10/6 600 м
[Cb cap As op]
+1.5 -3.5 69 +1 +1 1014.1 1009.9
15 20.03 З 1 10 км слабый ливневой дождь 10/8 600 м
[Cb cap As op]
+0.3 -0.9 92 -2 -2 1011.9 1007.6
18 20.03 штиль 0 10 км слабый ливневой дождь 10/8 600 м
[Cb cap As op]
+0.2 -0.5 95 -1 -1 1008.8 1004.5
21 20.03 штиль 0 4000 м слабый ливневой снег 10/8 600 м
[Cb cap As op]
0.0 -0.6 96 -1 -1 1007.4 1003.2 +0.1 3 <0.5
00 21.03 В 1 20 км {ливн. осадки} 10/4 600 м
[Sc diur, vesp Ci sp]
+1.6 +1.0 96 -0 +3 1006.3 1002.1
03 21.03 З 3 20 км 9/9 600 м
[Cb cap]
+6.2 -5.1 44 +4 +5 1004.8 1000.7
06 21.03 З 2
{10}
20 км 10/8 600 м
[Cb cap As trans]
+5.9 -1.6 59 +4 +4 1005.3 1001.2
09 21.03 З 1 20 км {ливн. осадки} 9/6 600 м
[Cb cap Ac trans]
+2.1 +0.5 89 0 0 1007.5 1003.3 +6.9 2
12 21.03 СЗ 1 20 км {ливн. осадки} 3/3 300 м
[Cb cap]
+0.4 -2.7 80 -1 -1 1008.4 1004.1
15 21.03 З 2 20 км ясно +3.6 -9.1 39 +2 +2 1008.5 1004.3
18 21.03 ЮЗ 1 20 км ясно +1.9 -11.2 37 +1 +1 1009.0 1004.8
21 21.03 З 2 20 км 8/8 600 м
[Cb cap]
+1.4 -10.6 40 -1 -1 1010.0 1005.8 +0.4
00 22.03 Ю 1 20 км 8/3 600 м
[Sc diur, vesp Ac lent Ci sp]
+1.6 -7.5 51 +1 +4 1010.6 1006.3 +0.1
03 22.03 З 5
{12}
20 км 8/4 600 м
[Cb cap Ci sp]
+5.1 -5.2 47 +1 +4 1010.1 1005.9
06 22.03 З 4
{11}
20 км 6/6 600 м
[Cb cap]
+5.1 -10.2 32 +2 +4 1010.6 1006.4
09 22.03 З 3
{11}
20 км 4/4 600 м
[Cb cap]
+2.2 -8.6 45 -1 -1 1012.9 1008.6 +5.6
12 22.03 СВ 1 20 км 3/3 600 м
[Cb cap]
-1.9 -3.9 86 -4 -4 1015.5 1011.2
15 22.03 З 1 20 км 6/6 600 м
[Cb cap]
-2.7 -3.8 92 -5 -5 1016.1 1011.8
18 22.03 З 2 4000 м дымка ясно -5.6 -6.3 95 -10 -10 1015.6 1011.2
21 22.03 ЮЗ 3 20 км 1/1 600 м
[Cb cap]
-0.4 -9.0 52 -4 -4 1015.4 1011.1 -6.0
00 23.03 Ю 2 50 км 3/3 600 м
[Cu hum]
+3.2 -10.0 37 +1 +6 1016.1 1011.8
03 23.03 З 5
{10}
50 км 8/8 600 м
[Cb cap]
+4.9 -9.3 35 +1 +2 1015.6 1011.4
06 23.03 З 3
{10}
20 км 8/8 600 м
[Cb cap]
+4.9 -10.1 33 +2 +3 1014.6 1010.4
09 23.03 ЮЗ 2 20 км 6/3 600 м
[Sc diur, vesp Ci fib]
+3.8 -10.6 34 +2 +2 1014.9 1010.7 +6.4
12 23.03 ЮЗ 3 20 км 8/4 600 м
[Sc Ci sp]
+1.8 -9.6 42 -2 -2 1016.9 1012.7
15 23.03 ЮЗ 2 20 км 6/6 600 м
[Sc]
+1.2 -10.1 43 -1 -1 1017.1 1012.8
18 23.03 З 1 20 км 6/3 600 м
[Sc Ci]
-0.4 -10.3 47 -2 -2 1017.4 1013.1
21 23.03 Ю 1 20 км 8/3 600 м
[Sc Ac lent Ci sp]
-0.3 -11.3 43 -1 -1 1017.7 1013.4 -1.3
00 24.03 Ю 1 20 км 6/3 600 м
[Sc Ac lent Ci sp]
+3.0 -10.2 37 +2 +7 1018.0 1013.7
03 24.03 СВ 3 20 км 8/4 600 м
[Cb cap Ci sp]
+6.7 -11.2 27 +5 +10 1016.4 1012.2
06 24.03 В 1 20 км 8/6 600 м
[Cb cap Ci sp]
+3.1 -6.8 48 +2 +5 1016.8 1012.6
09 24.03 штиль 0 20 км 9/6 600 м
[Cb cap Ci sp]
+1.6 -4.5 64 +1 +1 1017.8 1013.6 +7.1
12 24.03 З 1 20 км 3/3 600 м
[Cb cap]
+0.9 -10.0 44 -0 -0 1019.5 1015.2
15 24.03 З 2 20 км ясно -2.9 -9.1 62 -7 -7 1019.9 1015.5
18 24.03 З 3 20 км ясно -5.3 -9.4 73 -11 -11 1019.9 1015.5
21 24.03 З 2 20 км ясно -5.7 -9.6 74 -10 -10 1020.6 1016.2 -6.3
00 25.03 ЮЗ 3 20 км ясно +3.5 -7.6 44 0 +6 1020.2 1016.0
03 25.03 ЮЗ 3 20 км ясно +3.5 -7.6 44 0 +11 1020.2 1016.0
06 25.03 Ю 3 20 км 8/6 600 м
[Cb cap Ci fib]
+4.6 -8.3 39 +2 +4 1018.8 1014.5
09 25.03 СВ 1 20 км 3/3 600 м
[Cb cap]
+3.1 -9.8 38 +2 +2 1018.7 1014.4 +6.1
12 25.03 штиль 0 20 км 3/3 600 м
[Cb cap]
-0.1 -10.6 45 -0 -0 1019.8 1015.5
15 25.03 З 2 20 км ясно -4.2 -9.2 68 -8 -8 1019.7 1015.3
18 25.03 З 3 20 км ясно -5.2 -9.1 74 -11 -11 1019.2 1014.8
21 25.03 З 2 20 км 9/6 600 м
[Cb cap Ci sp]
-4.0 -8.5 71 -8 -8 1019.1 1014.7 -5.6

 

Местоположение метеостанции Рудная Пристань (Приморский край, Россия): широта 44.37 долгота 135.80 высота над уровнем моря 34 м.

В архиве по умолчанию представлена погода в Рудной Пристани за последнюю неделю. Архивные данные за месяц целиком и за предыдущие месяцы, начиная с января 2011 года, Вы можете получить, выбрав интересующий диапазон дат из раскрывающегося списка и нажав кнопку "Ввод!".

Внимание! Время в таблицах - всемирное. Для получения местного времени необходимо прибавить поправку, которая в Рудной Пристани равна 10 ч.

Смотрите также архив погоды в соседних городах и на ближайших метеорологических станциях:

Погода в Богополе (Приморский край, Россия) (35 км)
Погода в Кавалерово (Приморский край, Россия) (65 км)
Погода в Ольге (Приморский край, Россия) (80 км)
Погода в Тернее (Приморский край, Россия) (94 км)
Погода в Мельничном (Приморский край, Россия) (122 км)
Погода в Малой Кеме (Приморский край, Россия) (154 км)
Погода в Чугуевке (Приморский край, Россия) (161 км)
Погода в Малиново (Приморский край, Россия) (172 км)
Погода в Глубинном (Приморский край, Россия) (193 км)
Погода в Лазо (Приморский край, Россия) (193 км)

Пояснения к столбцам:

Ветер - указаны скорость ветра в м/с - средняя за 10 мин, порывы в срок и между сроками (в фигурных скобках) и направление, откуда дует ветер: С - северный, СВ - северо-восточный, В - восточный, ЮВ - юго-восточный, Ю - южный, ЮЗ - юго-западный, З - западный, СЗ - северо-западный.
Видимость - горизонтальная дальность видимости в метрах или километрах. При видимости от 1 до 10 км при отсутствии осадков обычно наблюдается дымка, при ухудшении видимости до 1 км и менее - туман. В сухую погоду видимость может ухудшаться дымом, пылью или мглою.
Явления - указаны атмосферные явления, наблюдавшиеся в срок или в последний час перед сроком; фигурными скобками обозначены явления, наблюдавшиеся между сроками (за 1-3 часа до срока); квадратными скобками обозначены град или гололедные отложения с указанием их диаметра в мм.
Облачность - указаны через наклонную черту общая и нижняя облачность в баллах и высота нижней границы облаков в метрах; квадратными скобками обозначены формы облаков: Ci - перистые, Cs - перисто-слоистые, Cc - перисто-кучевые, Ac - высококучевые, As - высокослоистые, Sc - слоисто-кучевые, Ns - слоисто-дождевые, Cu - кучевые, Cb - кучево-дождевые. Подробнее классификацию облаков см. в Атласе облаков (PDF).
T - Температура воздуха - температура, измеренная на высоте 2 м над землей.
Td - Температура точки росы - температура, при понижении до которой содержащийся в воздухе водяной пар достигнет насыщения.
f - Относительная влажность воздуха - влажноcть воздуха, измеренная на высоте 2 м над землей.
Te - Эффективная температура - температура, которую ощущает одетый по сезону человек в тени. Характеристика душности погоды. При расчете учитывается влияние влажности воздуха и скорости ветра на теплоощущения человека.
Tes - Эффективная температура на солнце - температура, которую ощущает человек, с поправкой на солнечный нагрев. Характеристика знойности погоды. Зависит от высоты солнца над горизонтом, облачности и скорости ветра. Ночью, в пасмурную погоду, а также при ветре 12 м/с и более поправка равна нулю.
P - Атмосферное давление - приведенное к уровню моря атмосферное давление.
Po - Атмосферное давление - измеренное на уровне метеостанции атмосферное давление.
Tmin - Минимальная температура - минимум температуры воздуха на высоте 2 м над землей.
Tmax - Максимальная температура - максимум температуры воздуха на высоте 2 м над землей.
R - Количество осадков - Количество выпавших осадков, мм. При наведении курсора мыши на число - период времени, за который выпало указанное количество осадков.
S - Снежный покров - Высота снежного покрова, см. При наведении курсора мыши на число - состояние снежного покрова и степень покрытия местности в баллах.